Zurück zum Katalog

DELTA 1 DEB

AktivSSO
NORAD 7133·DEBRIS·🇺🇸 United States

Gestartet Nov 6, 1973 von Vandenberg Space Force Base

Loading…

Nächste Überflüge (nächste 24 Stunden)

TLE

AktuellSource: Space-Track

Epoche: Sep 14, 2026, 00:56 UTC

1 07133U 73086CX  26257.03943226  .00000126  00000-0  12354-2 0  9995
2 07133 101.6625 287.9612 0038528 155.3019 233.5231 12.41616259391371

Verfolge DELTA 1 DEB in Echtzeit mit AllMySat

Download on the App Store